Location: Kopernik Observatory
(42.0014°N, 76.0372°W)
Time: 09:33:38
(UTC-04:00)

Daily predictions for brighter satellites

Satellite Brightness Start Highest point End
(mag) Time Altitude Azimuth Time Altitude Azimuth Time Altitude Azimuth
Cosmos 2219 4.5 21:08:48 10° SSE 21:12:57 21° E 21:17:07 10° NE
H-2A R/B 2.3 21:12:46 10° SSE 21:17:15 69° ENE 21:21:46 10° N
USA 229 DEB 3.8 21:13:09 10° SSW 21:19:57 63° ESE 21:26:52 10° NE
USA 229 3.8 21:13:16 10° SSW 21:20:04 63° ESE 21:26:58 10° NE
Cosmos 1328 Rocket 3.6 21:15:45 10° N 21:20:14 89° ENE 21:24:41 10° S
Cosmos 2322 4.3 21:15:03 10° NNW 21:20:31 43° ENE 21:25:56 10° SE
Cosmos 1441 Rocket 3.1 21:18:53 10° S 21:22:39 72° E 21:26:24 10° NNE
S3M 4.1 21:18:27 10° N 21:24:35 86° W 21:30:43 10° S
Cosmos 2322 Rocket 2.6 21:19:23 10° NNW 21:24:57 64° WSW 21:30:29 10° S
Cosmos 1726 4.4 21:24:17 10° NE 21:25:35 11° ENE 21:26:53 10° E
Cosmos 773 Rocket 4.1 21:21:54 10° NNW 21:27:05 67° ENE 21:32:16 10° SSE
CZ-4 SHROUD 4.0 21:25:00 10° SE 21:27:55 37° ENE 21:30:51 10° N
Cosmos 2228 Rocket 3.9 21:27:03 10° NNW 21:31:25 53° W 21:35:47 10° S
Cosmos 1980 Rocket 4.4 21:30:00 10° NW 21:34:08 21° W 21:38:17 10° SSW
SL-16 R/B 2.8 21:29:24 10° NNW 21:34:58 57° WSW 21:40:29 10° S
Cosmos 1743 Rocket 4.2 21:30:41 10° SSW 21:35:06 60° W 21:39:32 10° N
Cosmos 2360 Rocket 2.5 21:29:39 10° NNW 21:35:15 58° ENE 21:40:35 11° SE
Cosmos 968 Rocket 4.2 21:34:46 10° SSW 21:39:51 58° WNW 21:45:02 10° NNE
ATLAS CENTAUR R/B 3.6 21:37:23 10° WNW 21:40:48 22° WSW 21:44:01 10° SSW
Cosmos 1500 Rocket 3.8 21:37:07 10° SSW 21:41:28 75° W 21:45:54 10° N
Cosmos 1908 3.2 21:38:15 10° N 21:42:10 78° E 21:46:04 10° S
deb Chang Zheng 4 4.2 21:43:05 10° N 21:47:22 61° WNW 21:51:39 10° SSW
MetOp-B 4.2 21:45:28 10° SSE 21:50:47 72° ENE 21:56:09 10° N
Cosmos 1939 Rocket 3.7 21:48:43 10° S 21:52:33 48° W 21:56:21 10° NNW
DELTA 2 R/B(2) 4.0 21:54:40 10° SW 21:56:15 31° SSE 21:57:18 20° ESE
Delta 2 Rocket 4.0 21:53:47 10° SW 21:56:40 24° S 21:58:00 19° SE
Cosmos 883 Rocket 4.5 21:51:28 10° N 21:57:43 87° E 22:03:52 10° S
Meteor 1-4 Rocket 4.5 21:55:24 10° NNE 21:58:02 18° ENE 21:59:48 14° ESE
Cosmos 1674 2.9 21:55:17 10° SSW 21:59:05 73° W 22:02:57 10° N
Envisat 3.5 21:54:27 10° S 21:59:27 60° W 22:04:30 10° NNW
SPOT 5 2.9 21:55:26 10° S 21:59:56 74° WSW 22:04:44 10° NNW
Cosmos 2227 Rocket 3.9 22:00:43 12° ESE 22:01:55 13° E 22:04:22 10° ENE
ATLAS 2AS CENTAUR R/B 4.3 22:00:49 13° ESE 22:03:00 15° ESE 22:07:02 10° ENE
SL-08 RB Rocket 4.2 22:02:37 17° SE 22:05:41 44° ENE 22:09:58 10° N
Cosmos 1833 4.4 22:00:35 10° SSW 22:06:18 78° WNW 22:12:01 10° NNE
Cosmos 1437 Rocket 4.1 22:05:17 10° NNW 22:08:49 36° W 22:12:20 10° SSW
Cosmos 1300 3.1 22:05:06 10° N 22:08:49 46° E 22:11:00 22° SE
Cosmos 2112 Rocket 4.0 22:03:34 10° NNW 22:08:50 81° ENE 22:12:50 18° SSE
Cosmos 2333 Rocket 3.8 22:04:24 10° N 22:08:56 23° NE 22:13:11 11° ESE
Tiangong 1 3.4 22:06:45 10° SSW 22:06:59 11° SSW 22:06:59 11° SSW
USA 245 2.2 22:10:34 28° SSE 22:11:47 69° ENE 22:14:09 10° N
Cosmos 2298 Rocket 4.5 22:07:58 13° S 22:12:19 42° ESE 22:17:19 10° NNE
Cosmos 1437 3.0 22:09:05 10° SSW 22:12:21 72° W 22:15:39 10° N
DELTA 2 R/B (1) 3.8 22:07:14 10° W 22:12:37 53° SSW 22:16:24 19° SE
Cosmos 2315 Rocket 4.0 22:14:02 10° N 22:20:16 88° W 22:25:34 15° S
Cosmos 1937 Rocket 4.4 22:18:23 21° SE 22:20:47 30° E 22:25:16 10° NE
COSMOS 2428 2.8 22:15:22 10° NNW 22:21:02 66° ENE 22:24:46 22° SE
Sich 1 3.3 22:20:01 21° SSE 22:22:40 49° E 22:26:56 10° NNE
Cosmos 1633 Rocket 3.4 22:21:04 22° SSE 22:23:33 47° E 22:27:45 10° NNE
Cosmos 2151 3.6 22:19:37 10° SSW 22:23:44 56° W 22:27:54 10° N
YAOGAN 6 3.2 22:23:27 17° S 22:26:04 53° W 22:29:38 10° NNW
NOSS 3-1 (C) 3.4 22:21:36 10° SSW 22:27:21 62° ESE 22:33:42 10° NE
Cosmos 304 Rocket 4.4 22:24:01 10° NNW 22:28:42 51° WSW 22:32:12 17° S
Cosmos 2297 Rocket 3.8 22:28:39 15° ESE 22:29:15 16° E 22:32:27 10° ENE
CZ-4C R/B 3.2 22:29:16 31° SE 22:30:38 55° ENE 22:34:03 10° N
Cosmos 1455 3.8 22:28:43 10° NNE 22:31:34 20° ENE 22:32:31 18° E
H-2A R/B 2.5 22:29:35 23° SE 22:32:42 52° ENE 22:37:57 10° N
Cosmos 1805 Rocket 3.8 22:33:35 13° SSW 22:37:32 71° W 22:41:59 10° N
Cosmos 2219 Rocket 2.8 22:32:13 10° NNW 22:37:37 45° ENE 22:40:42 23° ESE
Lacrosse 4 Rocket 4.2 22:38:57 10° NNE 22:39:50 10° NE 22:40:43 10° NE
ARGOS 3.3 22:37:03 20° S 22:40:52 71° WSW 22:46:17 10° NNW
Landsat 7 3.8 22:39:24 28° SSE 22:41:57 77° ENE 22:46:43 10° N
Cosmos 2237 4.2 22:36:56 10° NNW 22:42:42 80° WSW 22:46:02 26° SSE
SPOT 1/Viking Rocket 4.1 22:41:06 17° S 22:44:54 52° W 22:49:57 10° NNW
Nadezhda 1 Rocket 4.2 22:43:35 10° N 22:49:34 54° E 22:52:38 28° SE
Cosmos 2058 3.8 22:46:01 12° SSW 22:49:40 46° WNW 22:53:39 10° N
Cosmos 292 Rocket 3.8 22:46:56 10° NNW 22:51:42 66° ENE 22:53:38 34° SE
CZ-4B R/B 4.5 22:47:12 10° N 22:52:17 48° WNW 22:57:16 10° SW
Cosmos 1980 4.4 22:47:31 10° NNW 22:52:56 44° ENE 22:55:44 25° ESE
Spot 4 4.1 22:52:29 32° SE 22:54:31 56° ENE 22:59:16 10° N
Cosmos 1707 Rocket 4.3 22:51:22 10° NNW 22:55:34 48° W 22:58:03 22° SSW
Cosmos 2219 3.8 22:50:57 10° SW 22:56:37 58° WNW 23:02:18 10° NNE
Terra 1.8 22:55:46 34° SSE 22:57:48 77° ENE 23:02:35 10° N
SAR-Lupe-2 3.6 22:57:19 49° SE 22:58:04 64° ENE 23:01:38 10° N
COSMOS 2455 4.4 22:53:31 10° N 22:58:35 27° NE 23:02:41 14° E
SL-14 R/B 3.9 22:56:58 20° SSW 22:59:27 52° W 23:03:22 10° N
Cosmos 1666 Rocket 4.2 22:56:36 18° SSW 22:59:45 54° W 23:04:07 10° N
Cosmos 1703 3.1 22:58:43 41° S 23:00:01 84° E 23:03:57 10° N
Cosmos 1898 Rocket 3.5 22:56:18 17° SSW 23:00:23 85° WNW 23:05:38 10° NNE
Cosmos 1726 2.9 22:57:36 10° NNW 23:01:15 47° W 23:02:46 29° SSW
Cosmos 1745 Rocket 3.9 22:57:28 25° S 23:01:19 77° E 23:07:30 10° N
Cosmos 2150 Rocket 4.1 22:57:11 14° SSW 23:01:50 82° WNW 23:07:20 10° NNE
Cosmos 1271 Rocket 2.7 22:58:19 10° NNW 23:02:09 81° W 23:03:14 46° S
SL-08 R/B 4.5 22:58:31 22° S 23:02:48 89° WNW 23:09:07 10° N
Cosmos 2333 4.3 22:57:11 10° NNW 23:02:54 75° WSW 23:05:40 32° S
Spot 2 4.4 23:00:22 10° NNE 23:05:29 65° ESE 23:07:27 36° S
Cosmos 2237 Rocket 2.7 23:00:35 10° NNW 23:06:09 51° ENE 23:08:42 30° ESE
Cosmos 1346 3.8 23:07:04 42° ENE 23:07:04 42° ENE 23:09:29 10° NNE
Cosmos 2082 4.0 23:07:20 34° SSE 23:09:17 48° ESE 23:14:45 10° NE
DMSP B5D2-2 4.0 23:07:14 10° NNE 23:12:30 87° ESE 23:15:08 30° SSW
Cosmos 1470 Rocket 3.4 23:11:47 44° S 23:13:06 82° E 23:17:26 10° N
Cosmos 220 Rocket 3.9 23:12:13 37° SSW 23:13:55 87° ESE 23:18:23 10° NNE
Cosmos 1933 Rocket 3.5 23:13:06 43° S 23:14:31 82° E 23:19:00 10° N
IGS 5A 3.5 23:14:41 46° S 23:15:51 74° WSW 23:20:02 10° NNW
Iridium 2 4.0 23:14:54 40° SSW 23:16:04 62° W 23:19:54 10° N
SeaSat 1 3.5 23:15:33 25° E 23:17:41 36° NE 23:22:11 10° N
Cosmos 2360 Rocket 4.1 23:14:43 10° NW 23:18:44 20° W 23:22:22 11° SW
Cosmos 1933 4.4 23:18:32 10° NNE 23:22:13 32° ENE 23:22:33 31° E
NOSS 3-1 (A) 3.8 23:24:21 10° SW 23:30:14 66° NW 23:36:49 10° NNE
Cosmos 1386 Rocket 4.4 23:27:31 33° S 23:30:26 86° W 23:36:29 10° N
NOSS 0 Rocket 3.9 23:24:47 10° NNW 23:30:58 79° WSW 23:33:20 40° SSE
Cosmos 2181 Rocket 4.4 23:25:06 10° N 23:31:20 53° ENE 23:33:42 36° SE
Meteor 1-4 Rocket 4.1 23:30:01 10° NNW 23:33:17 28° W 23:34:10 25° WSW
Cosmos 192 4.3 23:34:01 10° NNW 23:38:57 77° ENE 23:40:02 54° SE
Cosmos 1626 2.4 23:40:11 54° WSW 23:40:39 59° W 23:44:22 10° N
Cosmos 2227 Rocket 2.2 23:42:28 33° SSW 23:45:08 85° WNW 23:50:51 10° NNE
ERBS 3.9 23:51:23 28° NE 23:51:23 28° NE 23:53:10 10° NE
IKONOS-2 4.4 23:50:00 67° ESE 23:50:25 73° ENE 23:54:43 10° N
Cosmos 2333 Rocket 2.5 23:47:57 10° NNW 23:53:37 60° WSW 23:55:11 44° SSW
Cosmos 1862 Rocket 4.3 23:49:52 10° NNW 23:53:59 42° W 23:54:46 38° WSW
